Terminal Aerodrome Forecast
Issued by NWS

Home | Current Version | Previous Version | Text Only | Print | Product List | Glossary On
Versions: 1 2 3 4 5 6 7 8 9 10 11 12 13 14 15 16 17 18 19 20 21 22 23 24 25 26 27
000
FTUS46 KMTR 312300
TAFSFO
TAF
KSFO 312338Z 0100/0206 29018KT P6SM FEW008 SCT200
     FM010400 29012KT P6SM FEW200
     FM010700 30008KT P6SM FEW010
     FM011200 30005KT P6SM BKN007
     FM011600 34008KT P6SM FEW008 SCT250
     FM011900 30018KT P6SM FEW008 FEW250=

USA.gov is the U.S. government's official web portal to all federal, state and local government web resources and services.